When you browse on this site, cookies collect data to enhance your experience and personalize the content and advertising you see.
Visit our Privacy Policy to learn more. By continuing to use the site, you agree to this use of cookies and data.
  • In Deutschland
  • Länderverzeichnis
  • Für 7 Tage
  • Wassertemperatur
  • Wetterkarte
  • Widgets
  • user-avatar
    Anmelden

    Stündliche Wetter Naftalan

    Heute, 5 Juni, Freitag

    Zeit Temperatur Niederschläge Wind Luftdruck Luftfeuchtigkeit
    00:00 +21°C° 0 mm 1 m/S 760 mmHg 76%
    01:00 +21°C° 0 mm 1 m/S 760 mmHg 78%
    02:00 +20°C° 0 mm 1 m/S 760 mmHg 79%
    03:00 +18°C° 0 mm 0 m/S 760 mmHg 81%
    04:00 +21°C° 0 mm 1 m/S 761 mmHg 77%
    05:00 +21°C° 0 mm 1 m/S 761 mmHg 73%
    06:00 +21°C° 0 mm 2 m/S 762 mmHg 69%
    07:00 +24°C° 0 mm 2 m/S 762 mmHg 61%
    08:00 +26°C° 0 mm 3 m/S 762 mmHg 53%
    09:00 +28°C° 0 mm 3 m/S 762 mmHg 45%
    10:00 +29°C° 0 mm 3 m/S 762 mmHg 43%
    11:00 +30°C° 0 mm 3 m/S 762 mmHg 41%
    12:00 +32°C° 0 mm 4 m/S 762 mmHg 39%
    13:00 +30°C° 0 mm 5 m/S 762 mmHg 41%
    14:00 +29°C° 0 mm 6 m/S 762 mmHg 43%
    15:00 +29°C° 0 mm 7 m/S 761 mmHg 45%
    16:00 +28°C° 0 mm 6 m/S 762 mmHg 49%
    17:00 +27°C° 0 mm 5 m/S 762 mmHg 52%
    18:00 +26°C° 0 mm 5 m/S 763 mmHg 55%
    19:00 +25°C° 0 mm 4 m/S 763 mmHg 57%
    20:00 +23°C° 0 mm 4 m/S 764 mmHg 60%
    21:00 +23°C° 0 mm 4 m/S 764 mmHg 63%
    22:00 +22°C° 0 mm 4 m/S 764 mmHg 63%
    23:00 +22°C° 0 mm 4 m/S 765 mmHg 62%

    Morgen, 6 Juni, Samstag

    Zeit Temperatur Niederschläge Wind Luftdruck Luftfeuchtigkeit
    00:00 +22°C° 0 mm 4 m/S 765 mmHg 62%
    01:00 +22°C° 0 mm 4 m/S 765 mmHg 62%
    02:00 +22°C° 0 mm 4 m/S 765 mmHg 61%
    03:00 +22°C° 0 mm 3 m/S 765 mmHg 60%
    04:00 +23°C° 0 mm 4 m/S 766 mmHg 58%
    05:00 +25°C° 0 mm 4 m/S 766 mmHg 57%
    06:00 +25°C° 0 mm 4 m/S 766 mmHg 55%
    07:00 +26°C° 0 mm 4 m/S 766 mmHg 52%
    08:00 +27°C° 0 mm 3 m/S 766 mmHg 50%
    09:00 +28°C° 0 mm 3 m/S 767 mmHg 47%
    10:00 +28°C° 0 mm 3 m/S 766 mmHg 47%
    11:00 +28°C° 0 mm 3 m/S 766 mmHg 47%
    12:00 +28°C° 0 mm 3 m/S 766 mmHg 47%
    13:00 +28°C° 0 mm 3 m/S 766 mmHg 46%
    14:00 +29°C° 0 mm 3 m/S 766 mmHg 46%
    15:00 +29°C° 0 mm 4 m/S 765 mmHg 45%
    16:00 +28°C° 0 mm 3 m/S 765 mmHg 47%
    17:00 +27°C° 0 mm 3 m/S 765 mmHg 49%
    18:00 +27°C° 0 mm 3 m/S 765 mmHg 51%
    19:00 +26°C° 0 mm 2 m/S 765 mmHg 54%
    20:00 +25°C° 0 mm 2 m/S 765 mmHg 57%
    21:00 +24°C° 0 mm 1 m/S 766 mmHg 60%
    22:00 +24°C° 0 mm 1 m/S 766 mmHg 60%
    23:00 +23°C° 0 mm 1 m/S 765 mmHg 60%

    übermorgen, 7 Juni, Sonntag

    Zeit Temperatur Niederschläge Wind Luftdruck Luftfeuchtigkeit
    00:00 +23°C° 0 mm 1 m/S 765 mmHg 60%
    01:00 +23°C° 0 mm 1 m/S 765 mmHg 61%
    02:00 +22°C° 0 mm 1 m/S 765 mmHg 61%
    03:00 +22°C° 0 mm 1 m/S 765 mmHg 61%
    04:00 +23°C° 0 mm 2 m/S 765 mmHg 59%
    05:00 +24°C° 0 mm 2 m/S 766 mmHg 56%
    06:00 +24°C° 0 mm 2 m/S 766 mmHg 54%
    07:00 +25°C° 0 mm 2 m/S 766 mmHg 51%
    08:00 +27°C° 0 mm 2 m/S 766 mmHg 48%
    09:00 +28°C° 0 mm 2 m/S 766 mmHg 45%
    10:00 +28°C° 0 mm 3 m/S 765 mmHg 43%
    11:00 +29°C° 0 mm 3 m/S 765 mmHg 41%
    12:00 +30°C° 0 mm 4 m/S 765 mmHg 40%
    13:00 +30°C° 0 mm 5 m/S 765 mmHg 40%
    14:00 +30°C° 0 mm 5 m/S 764 mmHg 41%
    15:00 +29°C° 0 mm 6 m/S 764 mmHg 42%
    16:00 +28°C° 0 mm 6 m/S 764 mmHg 45%
    17:00 +27°C° 0 mm 6 m/S 764 mmHg 48%
    18:00 +26°C° 0 mm 6 m/S 763 mmHg 50%
    19:00 +26°C° 0 mm 5 m/S 764 mmHg 53%
    20:00 +25°C° 0 mm 5 m/S 764 mmHg 56%
    21:00 +23°C° 0 mm 5 m/S 764 mmHg 59%
    22:00 +23°C° 0 mm 4 m/S 764 mmHg 61%
    23:00 +24°C° 0 mm 3 m/S 763 mmHg 62%

    8 Juni, Montag

    Zeit Temperatur Niederschläge Wind Luftdruck Luftfeuchtigkeit
    00:00 +22°C° 0 mm 3 m/S 763 mmHg 63%
    01:00 +22°C° 0 mm 3 m/S 763 mmHg 64%
    02:00 +22°C° 0 mm 3 m/S 763 mmHg 65%
    03:00 +22°C° 0 mm 3 m/S 762 mmHg 66%
    04:00 +22°C° 0 mm 3 m/S 762 mmHg 64%
    05:00 +24°C° 0 mm 3 m/S 762 mmHg 61%
    06:00 +25°C° 0 mm 3 m/S 762 mmHg 59%
    07:00 +26°C° 0 mm 4 m/S 762 mmHg 53%
    08:00 +27°C° 0 mm 4 m/S 762 mmHg 47%
    09:00 +29°C° 0 mm 4 m/S 762 mmHg 41%
    10:00 +29°C° 0 mm 5 m/S 762 mmHg 40%
    11:00 +30°C° 0 mm 5 m/S 762 mmHg 38%
    12:00 +30°C° 0 mm 5 m/S 762 mmHg 36%
    13:00 +30°C° 0 mm 5 m/S 761 mmHg 36%
    14:00 +30°C° 0 mm 6 m/S 761 mmHg 36%
    15:00 +30°C° 0 mm 6 m/S 761 mmHg 36%
    16:00 +29°C° 0 mm 6 m/S 760 mmHg 39%
    17:00 +28°C° 0 mm 6 m/S 760 mmHg 42%
    18:00 +27°C° 0 mm 5 m/S 760 mmHg 45%
    19:00 +26°C° 0 mm 5 m/S 761 mmHg 50%
    20:00 +25°C° 0 mm 5 m/S 761 mmHg 54%
    21:00 +23°C° 0 mm 5 m/S 761 mmHg 59%
    22:00 +23°C° 0 mm 5 m/S 761 mmHg 62%
    23:00 +23°C° 0 mm 5 m/S 761 mmHg 65%

    9 Juni, Dienstag

    Zeit Temperatur Niederschläge Wind Luftdruck Luftfeuchtigkeit
    00:00 +22°C° 0 mm 5 m/S 761 mmHg 68%
    01:00 +22°C° 0 mm 4 m/S 761 mmHg 69%
    02:00 +22°C° 0 mm 4 m/S 761 mmHg 69%
    03:00 +22°C° 0 mm 3 m/S 760 mmHg 70%
    04:00 +22°C° 0 mm 3 m/S 761 mmHg 68%
    05:00 +24°C° 0 mm 3 m/S 761 mmHg 66%
    06:00 +25°C° 0 mm 4 m/S 761 mmHg 63%
    07:00 +26°C° 0 mm 4 m/S 761 mmHg 59%
    08:00 +28°C° 0 mm 4 m/S 762 mmHg 54%
    09:00 +29°C° 0 mm 5 m/S 762 mmHg 49%
    10:00 +29°C° 0 mm 5 m/S 762 mmHg 46%
    11:00 +30°C° 0 mm 5 m/S 762 mmHg 44%
    12:00 +32°C° 0 mm 5 m/S 762 mmHg 41%
    13:00 +30°C° 0 mm 5 m/S 761 mmHg 40%
    14:00 +30°C° 0 mm 4 m/S 761 mmHg 40%
    15:00 +30°C° 0 mm 4 m/S 761 mmHg 39%
    16:00 +29°C° 0 mm 4 m/S 761 mmHg 40%
    17:00 +28°C° 0 mm 4 m/S 761 mmHg 42%
    18:00 +28°C° 0 mm 4 m/S 761 mmHg 44%
    19:00 +27°C° 0 mm 4 m/S 761 mmHg 47%
    20:00 +26°C° 0 mm 3 m/S 761 mmHg 50%
    21:00 +25°C° 0 mm 3 m/S 761 mmHg 54%
    22:00 +25°C° 0.1 mm 3 m/S 761 mmHg 55%
    23:00 +25°C° 0.1 mm 3 m/S 761 mmHg 56%

    10 Juni, Mittwoch

    Zeit Temperatur Niederschläge Wind Luftdruck Luftfeuchtigkeit
    00:00 +24°C° 0.1 mm 3 m/S 761 mmHg 58%
    01:00 +24°C° 0 mm 2 m/S 761 mmHg 60%
    02:00 +23°C° 0 mm 2 m/S 760 mmHg 62%
    03:00 +22°C° 0 mm 1 m/S 760 mmHg 63%
    04:00 +23°C° 0 mm 1 m/S 760 mmHg 60%
    05:00 +24°C° 0 mm 1 m/S 761 mmHg 56%
    06:00 +25°C° 0 mm 2 m/S 761 mmHg 52%
    07:00 +27°C° 0.1 mm 2 m/S 761 mmHg 47%
    08:00 +29°C° 0.1 mm 2 m/S 761 mmHg 41%
    09:00 +30°C° 0.1 mm 1 m/S 761 mmHg 36%
    10:00 +31°C° 0 mm 2 m/S 761 mmHg 33%
    11:00 +33°C° 0 mm 3 m/S 761 mmHg 31%
    12:00 +34°C° 0 mm 4 m/S 761 mmHg 28%
    13:00 +34°C° 0 mm 5 m/S 761 mmHg 29%
    14:00 +34°C° 0 mm 5 m/S 761 mmHg 30%
    15:00 +33°C° 0 mm 6 m/S 760 mmHg 31%
    16:00 +32°C° 0 mm 5 m/S 760 mmHg 35%
    17:00 +30°C° 0 mm 5 m/S 760 mmHg 39%
    18:00 +29°C° 0 mm 4 m/S 760 mmHg 43%
    19:00 +27°C° 0 mm 3 m/S 761 mmHg 47%
    20:00 +26°C° 0 mm 3 m/S 761 mmHg 51%
    21:00 +25°C° 0 mm 2 m/S 761 mmHg 55%
    22:00 +25°C° 0 mm 2 m/S 761 mmHg 55%
    23:00 +24°C° 0 mm 2 m/S 761 mmHg 55%
    Mehr zeigen